Weather History for Seldovia, AK

Change the Weather History Date:

Tuesday, April 1, 2014

  Actual Average (PAHO) Record (PAHO)
Temperature  
Mean Temperature 29 °F -  
Max Temperature 37 °F 38 °F 49 °F (1957)
Min Temperature 21 °F 25 °F -9 °F (1944)
Degree Days  
Heating Degree Days 36    
Moisture  
Dew Point 23 °F    
Average Humidity 78    
Maximum Humidity 92    
Minimum Humidity 57    
Precipitation  
Precipitation 0.00 in - - ()
Sea Level Pressure  
Sea Level Pressure 29.92 in    
Wind  
Wind Speed 1 mph (NNE)    
Max Wind Speed 7 mph    
Max Gust Speed -    
Visibility 10 miles    
Events      
Averages and records for this station are not official NWS values.
T = Trace of Precipitation, MM = Missing Value Source: NWS Daily Summary

Daily Weather History Graph

Daily Weather History Graph

Search for Another Location

Airport:

Trip Planner

Search our weather history database for the weather conditions in past years. The results will help you decide how hot, cold, wet, or windy it might be!

Date:

Astronomy

Apr. 01, 2014 Rise Set
Actual Time 7:32 AM AKDT 8:50 PM AKDT
Civil Twilight 6:50 AM AKDT 9:32 PM AKDT
Nautical Twilight 5:57 AM AKDT 10:25 PM AKDT
Astronomical Twilight 4:57 AM AKDT 11:26 PM AKDT
Moon 8:12 AM AKDT (4/1) No Moon Set
Length of Visible Light 14h 42m
Length of Day
13h 18m
Waxing Crescent, 5% of the Moon is Illuminated
Apr 1
Waxing Crescent
Apr 7
First Quarter
Apr 14
Full
Apr 21
Last Quarter
Apr 28
New

Hourly Weather History & Observations

Time (AKDT) Temp. Windchill Dew Point Humidity Pressure Visibility Wind Dir Wind Speed Gust Speed Precip Events Conditions
12:53 AM 26.1 °F - 23.0 °F 88% 29.99 in 10.0 mi Calm Calm - N/A   Clear
1:53 AM 25.0 °F - 21.9 °F 88% 29.98 in 10.0 mi Calm Calm - N/A   Clear
2:53 AM 24.1 °F - 21.9 °F 91% 29.96 in 10.0 mi Calm Calm - N/A   Clear
3:53 AM 24.1 °F - 21.0 °F 88% 29.95 in 10.0 mi Calm Calm - N/A   Clear
4:53 AM 23.0 °F - 19.9 °F 88% 29.94 in 10.0 mi Calm Calm - N/A   Clear
5:53 AM 21.9 °F - 19.0 °F 89% 29.94 in 10.0 mi Calm Calm - N/A   Clear
6:53 AM 21.9 °F - 19.9 °F 92% 29.93 in 10.0 mi Calm Calm - N/A   Clear
7:53 AM 21.0 °F - 19.0 °F 92% 29.92 in 10.0 mi Calm Calm - N/A   Clear
8:53 AM 21.0 °F - 19.0 °F 92% 29.93 in 10.0 mi Calm Calm - N/A   Clear
9:53 AM 25.0 °F - 21.9 °F 88% 29.92 in 10.0 mi Calm Calm - N/A   Clear
10:53 AM 32.0 °F - 23.0 °F 69% 29.93 in 10.0 mi Calm Calm - N/A   Clear
11:53 AM 36.0 °F 32.1 °F 21.9 °F 57% 29.92 in 10.0 mi NNW 4.6 mph - N/A   Clear
12:53 PM 36.0 °F 30.3 °F 23.0 °F 59% 29.92 in 10.0 mi NNE 6.9 mph - N/A   Mostly Cloudy
1:53 PM 37.9 °F 33.5 °F 24.1 °F 57% 29.91 in 10.0 mi North 5.8 mph - N/A   Scattered Clouds
2:53 PM 35.1 °F 31.0 °F 24.1 °F 64% 29.91 in 10.0 mi Variable 4.6 mph - N/A   Partly Cloudy
3:53 PM 37.0 °F 34.5 °F 25.0 °F 62% 29.90 in 10.0 mi Variable 3.5 mph - N/A   Overcast
4:53 PM 36.0 °F 33.3 °F 25.0 °F 64% 29.89 in 10.0 mi Variable 3.5 mph - N/A   Overcast
5:53 PM 37.0 °F 34.5 °F 26.1 °F 65% 29.88 in 10.0 mi NNE 3.5 mph - N/A   Overcast
6:53 PM 36.0 °F 33.3 °F 27.0 °F 70% 29.89 in 10.0 mi NNE 3.5 mph - N/A   Mostly Cloudy
7:53 PM 35.1 °F - 26.1 °F 70% 29.89 in 10.0 mi Calm Calm - N/A   Partly Cloudy
8:53 PM 32.0 °F - 25.0 °F 75% 29.90 in 10.0 mi Calm Calm - N/A   Clear
9:53 PM 30.0 °F - 26.1 °F 85% 29.90 in 10.0 mi Calm Calm - N/A   Overcast
10:53 PM 28.9 °F - 25.0 °F 85% 29.91 in 10.0 mi Calm Calm - N/A   Overcast
11:53 PM 28.0 °F - 25.0 °F 88% 29.91 in 10.0 mi Calm Calm - N/A   Overcast